Regional Weather Roundup
Issued by NWS Little Rock, AR

Home | Current Version | Previous Version | Text Only | Print | Product List | Glossary On
Versions: 1 2 3 4 5 6 7 8 9 10 11 12 13 14 15 16 17 18 19 20 21 22 23 24 25 26 27
000
ASUS44 KLZK 161405
RWRLZK

WEATHER ROUNDUP FOR ARKANSAS
NATIONAL WEATHER SERVICE LITTLE ROCK AR
900 AM CDT WED APR 16 2014

NOTE: "FAIR" INDICATES FEW OR NO CLOUDS BELOW 12,000 FEET WITH NO
SIGNIFICANT WEATHER AND/OR OBSTRUCTIONS TO VISIBILITY.

ARZ001-003-010-029-161500-
NORTHWEST ARKANSAS

CITY           SKY/WX    TMP DP  RH WIND       PRES   REMARKS
FAYETTEVILLE   MOSUNNY   46  31  55 S18G26    30.12R
FORT SMITH     SUNNY     49  33  54 SE10      30.17R
HARRISON       SUNNY     45  31  58 SE16      30.16S
BENTONVILLE    MOSUNNY   48  32  53 S13       30.11S
ROGERS         MOSUNNY   46  30  53 SE17G28   30.11R
HIGHFILL       PTSUNNY   46  32  58 S21G30    30.10R
SPRINGDALE     MOSUNNY   46  32  57 SE9G16    30.13S
$$

ARZ004-005-016-161500-
NORTH CENTRAL ARKANSAS

CITY           SKY/WX    TMP DP  RH WIND       PRES   REMARKS
BATESVILLE     SUNNY     45  28  53 SE8       30.27R
FLIPPIN        SUNNY     45  25  45 S10G20    30.21S
MTN HOME       MOSUNNY   44  29  55 SE9       30.21R
$$

ARZ040-041-161500-
WEST CENTRAL ARKANSAS

CITY           SKY/WX    TMP DP  RH WIND       PRES   REMARKS
MENA           SUNNY     48  30  49 SE12G18   30.20S
MOUNT IDA      SUNNY     45  30  55 SE10      30.19F
$$

ARZ009-017-025-026-028-161500-
NORTHEAST ARKANSAS

CITY           SKY/WX    TMP DP  RH WIND       PRES   REMARKS
CORNING        FAIR      43  28  56 SE15G23   30.31R
JONESBORO      MOSUNNY   44  27  51 SE16      30.30R
NEWPORT        SUNNY     45  31  58 SE15      30.30R
BLYTHEVILLE    SUNNY     44  26  49 SE13      30.32S
NW BLYTHEVILLE MOSUNNY   45  27  49 SE12      30.31S
$$

ARZ022-023-033-042-044-161500-
CENTRAL ARKANSAS

CITY           SKY/WX    TMP DP  RH WIND       PRES   REMARKS
LITTLE ROCK    MOSUNNY   46  28  49 SE12      30.28R
N LITTLE ROCK  MOSUNNY   45  30  56 SE12G17   30.28R
JACKSONVILLE   SUNNY     47  28  47 SE13      30.28R
SEARCY         SUNNY     45  32  60 S8        30.30R
HOT SPRINGS    SUNNY     46  30  53 E8        30.25S
RUSSELLVILLE   SUNNY     46  33  60 VRB6      30.23S
CLINTON        FAIR      45  30  57 SE12      30.27S
$$

ARZ036-161500-
EAST ARKANSAS

CITY           SKY/WX    TMP DP  RH WIND       PRES   REMARKS
WEST MEMPHIS   SUNNY     44  27  51 SE10      30.30R
$$

ARZ050-053-066-070-073-161500-
SOUTHWEST ARKANSAS

CITY           SKY/WX    TMP DP  RH WIND       PRES   REMARKS
ARKADELPHIA    FAIR      46  36  68 SE5       30.27S
CAMDEN         SUNNY     45  34  65 MISG      30.27S
TEXARKANA      SUNNY     47  32  56 SE12G21   30.22F
EL DORADO      SUNNY     45  34  65 SE9       30.26R
DE QUEEN       SUNNY     45  37  73 SE5       30.21S
$$

ARZ056-057-069-161500-
SOUTHEAST ARKANSAS

CITY           SKY/WX    TMP DP  RH WIND       PRES   REMARKS
PINE BLUFF     SUNNY     45  31  58 SE9       30.28R
STUTTGART      SUNNY     46  28  49 SE16      30.28S
MONTICELLO     SUNNY     45  31  58 E7        30.27R

$$





USA.gov is the U.S. government's official web portal to all federal, state and local government web resources and services.